This demonstration page uses our WeatherBlox Daily Observations layout. Learn more.

Hourly Observations for June 16, 2020

Temp ( °F °C ) Dew Point ( °F °C ) Humidity (%) Winds ( mph kmh ) Pressure ( in mb ) Visibility ( mi km ) Precip ( " mm )
12:15 am 00:15 Clear 66 19 54 12 64 64 ESE 7 11 30.35 1028 10 16.0934 0 0
12:35 am 00:35 Clear 66 19 54 12 64 64 SE 7 11 30.35 1028 10 16.0934 0 0
12:55 am 00:55 Clear 64 18 52 11 64 64 ESE 7 11 30.35 1028 10 16.0934 0 0
1:15 am 01:15 Clear 64 18 52 11 64 64 ESE 7 11 30.35 1028 10 16.0934 0 0
1:35 am 01:35 Clear 64 18 52 11 64 64 Calm 30.35 1028 10 16.0934 0 0
1:55 am 01:55 Clear 64 18 52 11 64 64 Calm 30.35 1028 10 16.0934 0 0
2:15 am 02:15 Clear 63 17 54 12 73 73 Calm 30.36 1028 10 16.0934 0 0
2:35 am 02:35 Clear 63 17 54 12 73 73 NE 3 6 30.35 1028 10 16.0934 0 0
2:55 am 02:55 Clear 63 17 54 12 73 73 Calm 30.35 1028 10 16.0934 0 0
3:15 am 03:15 Clear 63 17 54 12 73 73 NE 5 7 30.35 1028 10 16.0934 0 0
3:35 am 03:35 Clear 63 17 54 12 73 73 NE 5 7 30.35 1028 10 16.0934 0 0
3:55 am 03:55 Clear 63 17 54 12 73 73 NE 5 7 30.35 1028 10 16.0934 0 0
4:15 am 04:15 Partly Cloudy 63 17 54 12 73 73 NNE 6 9 30.35 1028 10 16.0934 0 0
4:35 am 04:35 Partly Cloudy 61 16 54 12 77 77 NNE 6 9 30.35 1028 10 16.0934 0 0
4:55 am 04:55 Clear 61 16 54 12 77 77 NNE 7 11 30.35 1028 10 16.0934 0 0
5:15 am 05:15 Clear 61 16 54 12 77 77 NE 6 9 30.36 1028 10 16.0934 0 0
5:35 am 05:35 Clear 61 16 54 12 77 77 NNE 5 7 30.36 1028 10 16.0934 0 0
5:55 am 05:55 Sunny 61 16 54 12 77 77 NNE 6 9 30.36 1028 10 16.0934 0 0
6:15 am 06:15 Sunny 61 16 54 12 77 77 NNE 6 9 30.37 1028 10 16.0934 0 0
6:35 am 06:35 Sunny 61 16 54 12 77 77 NNE 8 13 30.37 1028 10 16.0934 0 0
6:55 am 06:55 Sunny 61 16 54 12 77 77 NNE 7 11 30.37 1028 10 16.0934 0 0
7:15 am 07:15 Sunny 61 16 54 12 77 77 NNE 8 13 30.37 1028 10 16.0934 0 0
7:35 am 07:35 Sunny 59 15 54 12 82 82 NNE 7 11 30.37 1028 10 16.0934 0 0
7:55 am 07:55 Sunny 59 15 54 12 82 82 NNE 7 11 30.38 1029 10 16.0934 0 0
8:15 am 08:15 Sunny 61 16 54 12 77 77 NNE 7 11 30.38 1029 10 16.0934 0 0
8:35 am 08:35 Sunny 61 16 54 12 77 77 NE 8 13 30.38 1029 10 16.0934 0 0
8:55 am 08:55 Sunny 63 17 54 12 73 73 NNE 9 15 30.38 1029 10 16.0934 0 0
9:15 am 09:15 Sunny 64 18 54 12 68 68 NE 10 17 30.38 1029 10 16.0934 0 0
9:35 am 09:35 Sunny 64 18 54 12 68 68 NE 9 15 30.37 1029 10 16.0934 0 0
9:55 am 09:55 Sunny 64 18 54 12 68 68 NNE 6 9 30.37 1029 10 16.0934 0 0
10:15 am 10:15 Sunny 66 19 54 12 64 64 NE 9 15 30.37 1029 10 16.0934 0 0
10:35 am 10:35 Mostly Cloudy 68 20 54 12 60 60 NNE 10 17 30.36 1028 10 16.0934 0 0
10:55 am 10:55 Cloudy 70 21 54 12 57 57 NE 10 17 30.35 1028 10 16.0934 0 0
11:15 am 11:15 Cloudy 70 21 52 11 53 53 ENE 10 17 30.35 1028 10 16.0934 0 0
11:35 am 11:35 Mostly Cloudy 70 21 52 11 53 53 NE 12 19 30.35 1028 10 16.0934 0 0
11:55 am 11:55 Mostly Cloudy 70 21 54 12 57 57 NE 12 19 30.35 1028 10 16.0934 0 0
12:15 pm 12:15 Mostly Cloudy 72 22 54 12 53 53 NE 13 20 30.34 1027 10 16.0934 0 0
12:35 pm 12:35 Cloudy 72 22 52 11 50 50 ENE 14 22 30.34 1027 10 16.0934 0 0
12:55 pm 12:55 Mostly Cloudy 72 22 52 11 50 50 ENE 9 15 30.33 1027 10 16.0934 0 0
1:15 pm 13:15 Cloudy 72 22 54 12 53 53 E 5 7 30.33 1027 10 16.0934 0 0
1:35 pm 13:35 Cloudy 73 23 54 12 50 50 NE 12 19 30.33 1027 10 16.0934 0 0
1:55 pm 13:55 Partly Cloudy 73 23 54 12 50 50 ENE 12 19 30.33 1027 10 16.0934 0 0
2:15 pm 14:15 Partly Cloudy 72 22 54 12 53 53 ENE 14 22 30.32 1027 10 16.0934 0 0
2:35 pm 14:35 Partly Cloudy 73 23 54 12 50 50 NE 9 15 30.32 1027 10 16.0934 0 0
2:55 pm 14:55 Mostly Cloudy 73 23 54 12 50 50 E 13 20 30.31 1026 10 16.0934 0 0
3:15 pm 15:15 Cloudy 73 23 54 12 50 50 NE 13 20 30.31 1026 10 16.0934 0 0
3:35 pm 15:35 Cloudy 73 23 54 12 50 50 NE 13 20 30.3 1026 10 16.0934 0 0
3:55 pm 15:55 Cloudy 75 24 54 12 47 47 NE 7 11 30.29 1026 10 16.0934 0 0
4:15 pm 16:15 Cloudy 77 25 54 12 44 44 ENE 14 22 30.28 1026 10 16.0934 0 0
4:35 pm 16:35 Mostly Cloudy 77 25 54 12 44 44 NE 12 19 30.26 1025 10 16.0934 0 0
4:55 pm 16:55 Partly Cloudy 75 24 54 12 47 47 NE 10 17 30.27 1025 10 16.0934 0 0
5:15 pm 17:15 Partly Cloudy 75 24 54 12 47 47 ENE 7 11 30.27 1025 10 16.0934 0 0
5:35 pm 17:35 Sunny 75 24 54 12 47 47 NE 9 15 30.26 1025 10 16.0934 0 0
5:55 pm 17:55 Sunny 75 24 55 13 50 50 ENE 8 13 30.26 1025 10 16.0934 0 0
6:15 pm 18:15 Sunny 73 23 55 13 53 53 ENE 9 15 30.26 1025 10 16.0934 0 0
6:35 pm 18:35 Partly Cloudy 73 23 54 12 50 50 ENE 7 11 30.25 1024 10 16.0934 0 0
6:55 pm 18:55 Sunny 73 23 54 12 50 50 ENE 8 13 30.25 1024 10 16.0934 0 0
7:15 pm 19:15 Sunny 73 23 54 12 50 50 E 7 11 30.25 1024 10 16.0934 0 0
7:35 pm 19:35 Sunny 72 22 54 12 53 53 E 8 13 30.25 1024 10 16.0934 0 0
7:55 pm 19:55 Sunny 72 22 54 12 53 53 E 7 11 30.25 1024 10 16.0934 0 0
8:15 pm 20:15 Sunny 72 22 52 11 50 50 E 6 9 30.25 1024 10 16.0934 0 0
8:35 pm 20:35 Partly Cloudy 70 21 52 11 53 53 E 6 9 30.25 1024 10 16.0934 0 0
8:55 pm 20:55 Partly Cloudy 70 21 52 11 53 53 E 5 7 30.25 1024 10 16.0934 0 0
9:15 pm 21:15 Mostly Cloudy 70 21 52 11 53 53 ESE 6 9 30.25 1024 10 16.0934 0 0
9:35 pm 21:35 Cloudy 70 21 52 11 53 53 ESE 5 7 30.26 1025 10 16.0934 0 0
9:55 pm 21:55 Cloudy 70 21 52 11 53 53 E 5 7 30.27 1025 10 16.0934 0 0
10:15 pm 22:15 Cloudy 68 20 52 11 56 56 ENE 3 6 30.27 1025 10 16.0934 0 0
10:35 pm 22:35 Cloudy 68 20 52 11 56 56 ENE 7 11 30.27 1025 10 16.0934 0 0
10:55 pm 22:55 Cloudy 68 20 52 11 56 56 ENE 6 9 30.27 1025 10 16.0934 0 0
11:15 pm 23:15 Cloudy 68 20 52 11 56 56 ENE 6 9 30.27 1025 10 16.0934 0 0
11:35 pm 23:35 Cloudy 68 20 52 11 56 56 ENE 6 9 30.27 1025 10 16.0934 0 0
11:55 pm 23:55 Cloudy 68 20 52 11 56 56 ENE 6 9 30.26 1025 10 16.0934 0 0

Powered by AerisWeather